Location: Wakeley
(44.8280°N, 106.8906°W)
Time: 10:29:39
(UTC+00:00)

Tiangong - Visible Passes

Search period start: 20 January 2022 00:00
Search period end: 30 January 2022 00:00
Orbit: 383 x 386 km, 41.5° (Epoch: 19 January)

Date Brightness Start Highest point End Pass type
(mag) Time Alt. Az. Time Alt. Az. Time Alt. Az.
28 Jan 3.1 02:04:03 10° SSW 02:05:46 20° S 02:05:46 20° S visible
29 Jan 3.3 01:04:58 10° SSW 01:06:58 16° SSE 01:08:55 10° ESE visible
29 Jan 4.0 02:40:21 10° WSW 02:41:07 16° SW 02:41:07 16° SW visible
